[[{"header":{"parameterUnit":"m.s-1","parameterCategory":1,"la1":30.2991,"la2":30.254,"lo1":-89.0895,"lo2":-89.0444,"dy":0.0017,"dx":0.0017,"nx":28,"ny":28,"refTime":"2024-10-07T21:00:00:Z","depth":0,"parameterNumber":2,"parameterNumberName":"U-component_of_WINDS"},"data":[0,0,0,0,0,0,0,0,0,0,0,0,0,0,0,0,0,0,0,0,0,0,0,0,0,0,0,0,0,0,0,0,0,0,0,0,0,0,0,0,0,0,0,0,0,0,0,0,0,0,0,0,0,0,0,0,0,0,-0.5549,-0.555,0,-0.5572,-0.5572,-0.5572,-0.5559,-0.5558,-0.5558,-0.5557,-0.558,-0.5582,-0.5583,0,0,0,0,0,0,0,0,0,0,0,0,0,-0.5494,-0.5495,-0.5549,-0.555,-0.555,-0.5572,-0.5572,-0.5572,-0.5559,-0.5558,-0.5558,-0.5557,-0.558,-0.5582,-0.5583,0,0,0,0,0,0,0,0,0,0,0,0,0,-0.5518,-0.5496,-0.5549,-0.5546,-0.5546,-0.5572,-0.5572,-0.5572,-0.5559,-0.5558,-0.5557,-0.5556,-0.558,-0.5581,-0.5583,-0.5614,0,0,-0.5589,-0.559,0,0,0,0,0,0,0,0,-0.5516,-0.552,-0.5546,-0.5546,-0.5546,-0.5562,-0.5561,-0.5586,-0.556,-0.5554,-0.5557,-0.5556,-0.5575,-0.5577,-0.5584,-0.5615,-0.5616,-0.5589,-0.559,-0.5591,-0.5591,0,0,0,0,0,0,0,-0.5515,-0.5519,-0.5558,-0.5546,-0.5547,-0.5543,-0.5545,-0.5566,-0.557,-0.5555,-0.5554,-0.5556,-0.5575,-0.5582,-0.5584,-0.5616,-0.5589,-0.5591,-0.5592,-0.5592,-0.5673,-0.5674,0,0,0,0,0,0,-0.5513,-0.5517,-0.5558,-0.5559,-0.5529,-0.5545,-0.5547,-0.5558,-0.5569,-0.557,-0.5557,-0.5556,-0.5579,-0.5582,-0.5585,-0.5622,-0.5591,-0.5593,-0.5594,-0.5672,-0.5674,-0.5675,0,0,0,0,0,0,-0.5512,-0.5517,-0.5557,-0.5538,-0.5543,-0.5547,-0.5558,-0.5559,-0.5566,-0.5572,-0.5572,-0.5564,-0.5578,-0.5582,-0.5607,-0.5622,-0.5593,-0.5595,-0.5671,-0.5673,-0.5674,-0.5695,0,0,0,0,0,0,-0.5511,-0.5517,-0.5529,-0.5538,-0.5544,-0.5578,-0.5559,-0.556,-0.5569,-0.5567,-0.5578,-0.5579,-0.5578,-0.5604,-0.5608,-0.5624,-0.5596,-0.567,-0.5672,-0.5674,-0.5693,-0.5697,-0.5701,0,0,0,0,0,-0.5509,-0.5534,-0.5529,-0.5534,-0.5559,-0.5579,-0.5582,-0.5581,-0.557,-0.5582,-0.5586,-0.5578,-0.5619,-0.5607,-0.5611,-0.5628,-0.5669,-0.5671,-0.5674,-0.5692,-0.5697,-0.5701,0,0,0,0,0,0,-0.5527,-0.5535,-0.553,-0.5559,-0.5569,-0.5577,-0.5592,-0.5587,-0.5599,-0.5597,-0.5595,-0.5598,-0.5623,-0.5628,-0.5613,-0.5658,-0.5642,-0.5646,-0.5654,-0.5659,-0.5663,-0.5662,-0.5598,0,0,0,0,0,-0.5534,-0.555,-0.5556,-0.5581,-0.5586,-0.5588,-0.5597,-0.5595,-0.5605,-0.5609,-0.5614,-0.5624,-0.5639,-0.5649,-0.5663,-0.5693,-0.5695,-0.5707,-0.5711,-0.5714,-0.5717,-0.5733,-0.5739,-0.5682,-0.5682,-0.5682,0,0,-0.5549,-0.5556,-0.5566,-0.5585,-0.5592,-0.5609,-0.5592,-0.561,-0.5622,-0.5612,-0.5635,-0.5639,-0.565,-0.5677,-0.569,-0.5682,-0.5733,-0.5717,-0.5719,-0.5721,-0.5736,-0.5742,-0.5746,-0.5684,-0.5684,-0.5684,0,0,-0.5586,-0.5592,-0.5614,-0.5621,-0.5631,-0.5632,-0.5637,-0.5646,-0.5649,-0.5672,-0.5664,-0.5678,-0.5704,-0.5712,-0.572,-0.5757,-0.5751,-0.5762,-0.5783,-0.5798,-0.5803,-0.5807,-0.5821,-0.5826,-0.5765,-0.5765,-0.5765,0,-0.5604,-0.5628,-0.5625,-0.5644,-0.5653,-0.5643,-0.5664,-0.5671,-0.5686,-0.5692,-0.5683,-0.5715,-0.5722,-0.5751,-0.576,-0.5766,-0.5771,-0.5762,-0.5802,-0.5806,-0.581,-0.5823,-0.5828,-0.5766,-0.5766,-0.5766,-0.5766,0,-0.565,-0.5667,-0.5683,-0.5697,-0.5707,-0.5727,-0.5727,-0.5738,-0.5734,-0.5736,-0.576,-0.5767,-0.5782,-0.5788,-0.5785,-0.5817,-0.5812,-0.5802,-0.5787,-0.5817,-0.5829,-0.5834,-0.5768,-0.5768,-0.5767,-0.5767,0,0,-0.57,-0.5711,-0.5717,-0.5723,-0.5734,-0.5747,-0.5766,-0.5781,-0.579,-0.58,-0.5816,-0.5838,-0.5829,-0.5837,-0.5835,-0.5848,-0.5878,-0.5837,-0.5838,-0.5845,-0.5913,-0.5921,-0.5927,-0.5873,-0.5874,-0.5875,-0.5913,0,-0.5738,-0.5772,-0.5769,-0.5801,-0.5817,-0.5807,-0.5824,-0.5832,-0.5833,-0.5847,-0.5849,-0.5864,-0.5851,-0.5856,-0.5869,-0.5872,-0.5892,-0.5869,-0.5889,-0.589,-0.5888,-0.5934,-0.5942,-0.5977,-0.5918,-0.5918,-0.5919,0,-0.5787,-0.5798,-0.5832,-0.5839,-0.5846,-0.5861,-0.5874,-0.5887,-0.5895,-0.5896,-0.5904,-0.5899,-0.5918,-0.5901,-0.5927,-0.5912,-0.5919,-0.5922,-0.5923,-0.5926,-0.5907,-0.5939,-0.5989,-0.5994,-0.5927,-0.5926,-0.5925,0,-0.5821,-0.5845,-0.5868,-0.5873,-0.5882,-0.5893,-0.5897,-0.5905,-0.5913,-0.5924,-0.593,-0.5943,-0.5951,-0.596,-0.5959,-0.5946,-0.5986,-0.5968,-0.5987,-0.5987,-0.5997,-0.5997,-0.605,-0.6,-0.6,-0.6,-0.6,0,-0.5864,-0.5886,-0.5883,-0.5898,-0.5921,-0.5917,-0.594,-0.5943,-0.5949,-0.5964,-0.5955,-0.5969,-0.5966,-0.5979,-0.5978,-0.6,-0.6003,-0.6004,-0.6004,-0.6006,-0.6006,-0.6012,-0.601,-0.6001,-0.6001,-0.6001,-0.6,0,-0.5907,-0.5906,-0.5931,-0.5937,-0.5939,-0.5956,-0.5961,-0.5974,-0.5975,-0.5993,-0.5997,-0.5998,-0.6014,-0.6012,-0.603,-0.6029,-0.6056,-0.6053,-0.6054,-0.6053,-0.6072,-0.6071,-0.6132,-0.614,-0.6084,-0.6085,-0.6085,0,-0.5936,-0.5952,-0.5959,-0.5968,-0.5973,-0.5988,-0.5996,-0.5992,-0.6002,-0.6012,-0.6024,-0.6039,-0.605,-0.6075,-0.6077,-0.6091,-0.6088,-0.6108,-0.609,-0.6091,-0.6089,-0.6088,-0.609,-0.6112,-0.6113,-0.6113,-0.6114,0,-0.5986,-0.5985,-0.5998,-0.601,-0.6021,-0.6031,-0.6039,-0.6047,-0.6044,-0.6055,-0.607,-0.6079,-0.6097,-0.6111,-0.6123,-0.6127,-0.612,-0.6119,-0.6124,-0.6127,-0.6128,-0.6128,-0.6065,-0.6118,-0.6118,-0.6118,-0.6117,-0.6117,-0.6023,-0.6037,-0.6044,-0.6059,-0.6065,-0.6073,-0.6086,-0.6087,-0.61,-0.6114,-0.6111,-0.6128,-0.6135,-0.6151,-0.6156,-0.6169,-0.6162,-0.6169,-0.6171,-0.6174,-0.6176,-0.6124,-0.6171,-0.6171,-0.6171,-0.6171,-0.6171,0,-0.6074,-0.6078,-0.6091,-0.6104,-0.6115,-0.6106,-0.6115,-0.6125,-0.6141,-0.6148,-0.6159,-0.6177,-0.619,-0.6193,-0.6206,-0.6216,-0.6213,-0.622,-0.622,-0.6221,-0.6182,-0.6176,-0.6222,-0.6222,-0.6222,-0.6222,-0.6222,-0.6222,-0.6102,-0.6125,-0.6124,-0.615,-0.6153,-0.617,-0.6176,-0.6183,-0.6189,-0.6209,-0.622,-0.6222,-0.6227,-0.624,-0.6252,-0.6252,-0.6258,-0.6266,-0.6265,-0.6229,-0.6224,-0.6219,-0.6214,-0.6267,-0.6267,-0.6304,-0.6304,-0.6304]},{"header":{"parameterUnit":"m.s-1","parameterCategory":1,"la1":30.2991,"la2":30.254,"lo1":-89.0895,"lo2":-89.0444,"dy":0.0017,"dx":0.0017,"nx":28,"ny":28,"refTime":"2024-10-07T21:00:00:Z","depth":0,"parameterNumber":3,"parameterNumberName":"V-component_of_WINDS"},"data":[0,0,0,0,0,0,0,0,0,0,0,0,0,0,0,0,0,0,0,0,0,0,0,0,0,0,0,0,0,0,0,0,0,0,0,0,0,0,0,0,0,0,0,0,0,0,0,0,0,0,0,0,0,0,0,0,0,0,-6.3967,-6.3968,0,-6.4067,-6.4068,-6.4069,-6.3983,-6.3979,-6.3976,-6.3973,-6.4069,-6.4074,-6.408,0,0,0,0,0,0,0,0,0,0,0,0,0,-6.3698,-6.3703,-6.3967,-6.3968,-6.397,-6.4066,-6.4068,-6.4069,-6.3984,-6.3979,-6.3975,-6.3971,-6.4067,-6.4074,-6.4081,0,0,0,0,0,0,0,0,0,0,0,0,0,-6.3807,-6.3705,-6.3967,-6.3939,-6.3937,-6.4066,-6.4068,-6.4069,-6.3985,-6.3979,-6.3974,-6.3969,-6.4065,-6.4073,-6.4082,-6.4242,0,0,-6.4108,-6.4112,0,0,0,0,0,0,0,0,-6.3801,-6.3817,-6.3942,-6.3941,-6.3939,-6.4007,-6.4008,-6.4127,-6.3986,-6.3966,-6.3973,-6.3966,-6.4052,-6.4062,-6.4092,-6.4246,-6.425,-6.4109,-6.4115,-6.4118,-6.4121,0,0,0,0,0,0,0,-6.3794,-6.3813,-6.4006,-6.3943,-6.3942,-6.3919,-6.3929,-6.403,-6.4037,-6.3968,-6.3962,-6.3975,-6.405,-6.4083,-6.4093,-6.4252,-6.4109,-6.4117,-6.4122,-6.4126,-6.4542,-6.4548,0,0,0,0,0,0,-6.379,-6.3807,-6.4003,-6.4009,-6.3856,-6.3928,-6.3939,-6.3991,-6.4036,-6.4038,-6.3979,-6.3971,-6.4071,-6.4083,-6.4096,-6.4287,-6.4118,-6.4127,-6.4132,-6.4536,-6.4543,-6.455,0,0,0,0,0,0,-6.3784,-6.3808,-6.3999,-6.3907,-6.3929,-6.3939,-6.3997,-6.3995,-6.4028,-6.4045,-6.4045,-6.4012,-6.4067,-6.4084,-6.4207,-6.4289,-6.413,-6.4138,-6.4529,-6.4538,-6.4546,-6.4669,0,0,0,0,0,0,-6.3777,-6.3807,-6.3869,-6.3909,-6.3934,-6.411,-6.4002,-6.4001,-6.4044,-6.4034,-6.4076,-6.4078,-6.4064,-6.4194,-6.4215,-6.4298,-6.4145,-6.4522,-6.4533,-6.4544,-6.4658,-6.4681,-6.4701,0,0,0,0,0,-6.3768,-6.3898,-6.3873,-6.3897,-6.4013,-6.4115,-6.4129,-6.4113,-6.4051,-6.4113,-6.4124,-6.4076,-6.4277,-6.4207,-6.423,-6.4317,-6.4517,-6.453,-6.4543,-6.4648,-6.4677,-6.4701,0,0,0,0,0,0,-6.3866,-6.3903,-6.3875,-6.4023,-6.4067,-6.41,-6.4178,-6.4143,-6.4204,-6.4191,-6.4166,-6.4177,-6.4306,-6.4323,-6.4246,-6.4474,-6.4386,-6.4405,-6.4459,-6.4486,-6.4507,-6.45,-6.4153,0,0,0,0,0,-6.3906,-6.3987,-6.4014,-6.4142,-6.4165,-6.4168,-6.4212,-6.4196,-6.4239,-6.4257,-6.4276,-6.4319,-6.4391,-6.4439,-6.4506,-6.466,-6.4667,-6.4731,-6.4752,-6.477,-6.4786,-6.4869,-6.4897,-6.4592,-6.4592,-6.4592,0,0,-6.3987,-6.4017,-6.407,-6.4162,-6.4194,-6.4278,-6.4184,-6.4276,-6.4337,-6.427,-6.4388,-6.4404,-6.4449,-6.4588,-6.465,-6.4606,-6.4872,-6.4787,-6.4801,-6.4807,-6.4885,-6.4914,-6.4939,-6.4601,-6.46,-6.4598,0,0,-6.4178,-6.4209,-6.4319,-6.4354,-6.4404,-6.4405,-6.4432,-6.4471,-6.448,-6.4598,-6.4549,-6.462,-6.4745,-6.478,-6.4814,-6.5019,-6.4977,-6.5041,-6.5154,-6.5234,-6.5258,-6.5279,-6.5352,-6.5379,-6.5057,-6.5057,-6.5057,0,-6.4272,-6.4398,-6.438,-6.4476,-6.4518,-6.4463,-6.4573,-6.4607,-6.4676,-6.4705,-6.4656,-6.4812,-6.4839,-6.4985,-6.5035,-6.5064,-6.5093,-6.5036,-6.5256,-6.5277,-6.5297,-6.5366,-6.5394,-6.5065,-6.5064,-6.5063,-6.5062,0,-6.4511,-6.4599,-6.4682,-6.4753,-6.4803,-6.4906,-6.4902,-6.4956,-6.4935,-6.4941,-6.5061,-6.5091,-6.5164,-6.5197,-6.5177,-6.5341,-6.5312,-6.526,-6.5171,-6.5334,-6.5399,-6.5425,-6.5075,-6.5073,-6.507,-6.5069,0,0,-6.4767,-6.4828,-6.4858,-6.489,-6.4941,-6.5008,-6.5108,-6.5181,-6.5227,-6.5276,-6.5359,-6.5466,-6.5419,-6.5457,-6.544,-6.5511,-6.5671,-6.545,-6.545,-6.549,-6.5854,-6.5893,-6.5925,-6.5644,-6.5649,-6.5653,-6.585,0,-6.4961,-6.5138,-6.5124,-6.529,-6.537,-6.5319,-6.5405,-6.5445,-6.5453,-6.5521,-6.5528,-6.5606,-6.5537,-6.556,-6.5627,-6.5638,-6.5744,-6.5623,-6.5719,-6.5723,-6.5711,-6.5958,-6.6,-6.6185,-6.5875,-6.588,-6.5883,0,-6.5211,-6.5272,-6.5446,-6.5486,-6.5519,-6.5598,-6.5664,-6.573,-6.5774,-6.5774,-6.5818,-6.5789,-6.5888,-6.5797,-6.5932,-6.585,-6.5888,-6.5899,-6.5906,-6.5915,-6.5813,-6.5974,-6.6244,-6.6272,-6.5922,-6.5919,-6.5916,0,-6.5381,-6.5506,-6.5626,-6.5655,-6.5704,-6.5761,-6.5784,-6.5822,-6.5867,-6.5924,-6.5953,-6.602,-6.6056,-6.6108,-6.6097,-6.6032,-6.6235,-6.6143,-6.6238,-6.6238,-6.6283,-6.6281,-6.6564,-6.6307,-6.6307,-6.6306,-6.6306,0,-6.5599,-6.5708,-6.5704,-6.5778,-6.5898,-6.5881,-6.5999,-6.6015,-6.605,-6.6125,-6.6083,-6.6154,-6.6135,-6.6205,-6.6197,-6.631,-6.6327,-6.6329,-6.6326,-6.6333,-6.6333,-6.6358,-6.6346,-6.6314,-6.6312,-6.6311,-6.631,0,-6.581,-6.5811,-6.594,-6.5977,-6.5988,-6.6075,-6.6106,-6.6175,-6.6179,-6.6275,-6.6296,-6.6303,-6.6383,-6.6377,-6.6466,-6.6461,-6.6601,-6.6582,-6.6587,-6.6584,-6.6679,-6.667,-6.6988,-6.7029,-6.6746,-6.6748,-6.6751,0,-6.5949,-6.6032,-6.6079,-6.6127,-6.6154,-6.6233,-6.6279,-6.6264,-6.6314,-6.637,-6.6432,-6.6509,-6.657,-6.6699,-6.6711,-6.6779,-6.6762,-6.6868,-6.6771,-6.6777,-6.6764,-6.6759,-6.6767,-6.6887,-6.6891,-6.6893,-6.6895,0,-6.6197,-6.6194,-6.6263,-6.6334,-6.6391,-6.6445,-6.6494,-6.6535,-6.6525,-6.6583,-6.6665,-6.6713,-6.6805,-6.6881,-6.6946,-6.6967,-6.693,-6.6926,-6.6951,-6.696,-6.696,-6.6962,-6.664,-6.6919,-6.6916,-6.6915,-6.6913,-6.6912,-6.6376,-6.6448,-6.6492,-6.6571,-6.6607,-6.6654,-6.6721,-6.6735,-6.6804,-6.688,-6.6866,-6.6959,-6.6999,-6.7083,-6.7111,-6.7182,-6.7143,-6.718,-6.7189,-6.7199,-6.721,-6.6949,-6.7193,-6.7192,-6.7192,-6.7191,-6.7191,0,-6.6622,-6.6648,-6.6721,-6.6793,-6.6854,-6.6816,-6.6868,-6.6922,-6.7005,-6.7047,-6.7108,-6.7203,-6.7276,-6.7294,-6.7365,-6.7418,-6.7403,-6.7437,-6.7433,-6.7438,-6.7241,-6.7212,-6.7448,-6.7448,-6.7448,-6.7448,-6.7448,-6.7448,-6.6757,-6.6877,-6.6879,-6.7015,-6.7039,-6.7132,-6.7165,-6.7208,-6.7242,-6.735,-6.7413,-6.7424,-6.7456,-6.7529,-6.7594,-6.7597,-6.7625,-6.7667,-6.7663,-6.7478,-6.7452,-6.7428,-6.7401,-6.7673,-6.7673,-6.7855,-6.7857,-6.7858]}]]